Location: Gleizolles
(44.4833°N, 6.7667°E)
Time: 10:36:04
(UTC+00:00)

RESURS DK-1 - Pass Details

Date: 09 April 2020
Orbit: 557 x 561 km, 69.9° (Epoch: 05 June)

Event Time Altitude Azimuth Distance (km) Brightness Sun altitude
Rises 20:44:50 0° 335° (NNW) 2,758 7.0 -25.1°
Reaches altitude 10° 20:47:04 10° 338° (NNW) 1,858 5.8 -25.4°
Enters shadow 20:50:12 47° 2° (N) 750 3.1 -25.8°
